DL5BQ-11 Weather Reports


Display with metric or nautical units.
time (UTC)temp
F
wind
direction
speed
MPH
gust
MPH
rain 1hr
in
rain 24hr
in
rain mn
in
humidity
%
barometer
mb
20191023072224 51 59 1.0 4.0 0.00 0.00 0.00 89 1017.5
20191023071222 51 59 1.0 3.0 0.00 0.00 0.00 89 1017.4
20191023070220 51 90 1.0 3.0 0.00 0.00 0.00 89 1017.5
20191023065218 51 90 0.0 3.0 0.00 0.00 0.00 89 1017.8
20191023064216 51 122 1.0 3.0 0.00 0.00 0.00 89 1017.9
20191023063215 51 90 1.0 3.0 0.00 0.00 0.00 89 1018.0
20191023062212 51 90 0.0 1.0 0.00 0.00 0.00 89 1017.9
20191023061210 51 75 1.0 3.0 0.00 0.00 0.00 89 1017.9
20191023060208 51 75 1.0 3.0 0.00 0.00 0.00 89 1017.9
20191023055206 51 90 0.0 2.0 0.00 0.00 0.00 89 1018.0
20191023054204 51 90 0.0 3.0 0.00 0.00 0.00 89 1018.0
20191023053203 51 90 0.0 3.0 0.00 0.00 0.00 89 1018.3
20191023052200 51 90 0.0 3.0 0.00 0.00 0.00 89 1018.2
20191023051158 51 90 0.0 3.0 0.00 0.00 0.00 89 1018.2
20191023050156 51 90 0.0 1.0 0.00 0.00 0.00 89 1018.4
20191023045155 51 51 0.0 3.0 0.00 0.00 0.00 89 1018.3
20191023044151 50 90 0.0 3.0 0.00 0.00 0.00 89 1018.4
20191023043150 50 90 0.0 3.0 0.00 0.00 0.00 89 1018.4
20191023042148 50 56 1.0 2.0 0.00 0.00 0.00 89 1018.7
20191023041145 50 45 1.0 3.0 0.00 0.00 0.00 89 1018.8
20191023040144 50 59 0.0 2.0 0.00 0.00 0.00 89 1019.0
20191023035141 50 45 0.0 1.0 0.00 0.00 0.00 89 1019.3
20191023034140 50 45 1.0 3.0 0.00 0.00 0.00 89 1019.4
20191023033137 50 45 1.0 3.0 0.00 0.00 0.00 89 1019.4
20191023032135 50 45 0.0 3.0 0.00 0.00 0.00 89 1019.3
20191023031134 50 45 0.0 3.0 0.00 0.00 0.00 89 1019.3
20191023030131 50 0.0 0.0 0.00 0.00 0.00 89 1019.9
20191023025130 50 90 0.0 1.0 0.00 0.00 0.00 89 1019.9
20191023024128 50 90 0.0 1.0 0.00 0.00 0.00 89 1020.3
20191023023126 50 45 0.0 2.0 0.00 0.00 0.00 89 1020.4
20191023022207 50 45 0.0 2.0 0.00 0.00 0.00 89 1020.4
20191023021122 50 50 0.0 1.0 0.00 0.00 0.00 89 1020.6
20191023020120 50 90 0.0 1.0 0.00 0.00 0.00 89 1020.9
20191023015118 50 90 0.0 1.0 0.00 0.00 0.00 89 1021.0
20191023014116 50 90 0.0 1.0 0.00 0.00 0.00 89 1021.1
20191023013114 50 90 0.0 1.0 0.00 0.00 0.00 89 1021.2
20191023012112 50 90 0.0 1.0 0.00 0.00 0.00 89 1021.2
20191023011115 50 48 1.0 1.0 0.00 0.00 0.00 89 1021.2
20191023010108 50 48 1.0 1.0 0.00 0.00 0.00 89 1021.2
20191023005106 50 48 0.0 1.0 0.00 0.00 0.00 89 1021.3
20191023004104 50 0.0 1.0 0.00 0.00 0.00 89 1021.6
20191023003102 50 0.0 1.0 0.00 0.00 0.00 89 1021.6
20191023002100 50 90 0.0 1.0 0.00 0.00 0.00 89 1021.9
20191023001058 50 90 0.0 1.0 0.00 0.00 0.00 89 1021.9
20191023000056 50 0.0 1.0 0.00 0.00 0.00 89 1022.0
20191022235054 50 0.0 1.0 0.00 0.00 0.00 89 1022.0
20191022234052 50 0.0 0.0 0.00 0.00 0.00 89 1022.2
20191022233050 50 51 0.0 1.0 0.00 0.00 0.00 89 1022.2
20191022232048 50 51 0.0 1.0 0.00 0.00 0.00 89 1022.2
20191022231046 50 90 0.0 1.0 0.00 0.00 0.00 89 1022.2
20191022230043 50 90 0.0 1.0 0.00 0.00 0.00 89 1022.2
20191022225042 50 90 0.0 1.0 0.00 0.00 0.00 89 1022.2
20191022224039 50 90 0.0 1.0 0.00 0.00 0.00 89 1022.2
20191022223037 50 50 0.0 1.0 0.00 0.00 0.00 89 1022.5
20191022222036 50 0.0 1.0 0.00 0.00 0.00 89 1022.5
20191022221035 50 0.0 1.0 0.00 0.00 0.00 89 1022.5
20191022220032 50 45 0.0 1.0 0.00 0.00 0.00 89 1022.6
20191022215029 50 45 0.0 1.0 0.00 0.00 0.00 89 1022.6
20191022214028 50 0.0 0.0 0.00 0.00 0.00 89 1022.2
20191022213026 50 0.0 0.0 0.00 0.00 0.00 89 1022.2
20191022212024 50 90 0.0 1.0 0.00 0.00 0.00 89 1022.4
20191022211022 50 29 0.0 1.0 0.00 0.00 0.00 89 1022.7
20191022210019 49 90 0.0 1.0 0.00 0.00 0.00 89 1022.6
20191022205018 49 90 0.0 1.0 0.00 0.00 0.00 89 1022.5
20191022204020 49 90 0.0 1.0 0.00 0.00 0.00 89 1022.5
20191022203014 49 90 0.0 1.0 0.00 0.00 0.00 89 1022.6
20191022202012 49 57 0.0 1.0 0.00 0.00 0.00 89 1022.7
20191022201010 49 45 0.0 1.0 0.00 0.00 0.00 89 1022.7
20191022200009 49 0.0 1.0 0.00 0.00 0.00 89 1022.9
20191022195005 49 0.0 0.0 0.00 0.00 0.00 89 1022.8
20191022194004 50 45 0.0 1.0 0.00 0.00 0.00 89 1022.8
20191022193004 50 90 0.0 1.0 0.00 0.00 0.00 88 1022.8
20191022192501 50 51 0.0 1.0 0.00 0.00 0.00 88 1022.9
20191022191500 50 90 0.0 1.0 0.00 0.00 0.00 88 1022.9
20191022190457 50 90 1.0 1.0 0.00 0.00 0.00 88 1023.1
20191022185455 51 15 0.0 1.0 0.00 0.00 0.00 88 1023.2
20191022184453 51 15 0.0 1.0 0.00 0.00 0.00 88 1023.2
20191022183451 51 90 1.0 2.0 0.00 0.00 0.00 87 1023.0
20191022182450 51 107 1.0 1.0 0.00 0.00 0.00 87 1023.1
20191022181448 52 90 1.0 1.0 0.00 0.00 0.00 87 1023.2
20191022180445 52 90 0.0 1.0 0.00 0.00 0.00 87 1023.1
20191022175444 52 90 0.0 1.0 0.00 0.00 0.00 87 1023.1
20191022174441 53 108 1.0 1.0 0.00 0.00 0.00 87 1023.4
20191022173439 53 90 0.0 1.0 0.00 0.00 0.00 86 1023.2
20191022172437 53 90 0.0 1.0 0.00 0.00 0.00 86 1023.2
20191022171434 54 135 0.0 1.0 0.00 0.00 0.00 86 1023.1
20191022170433 54 130 0.0 1.0 0.00 0.00 0.00 86 1022.9
20191022165431 55 129 0.0 1.0 0.00 0.00 0.00 85 1022.9
20191022164429 55 90 0.0 1.0 0.00 0.00 0.00 85 1022.7
20191022163427 56 90 0.0 1.0 0.00 0.00 0.00 84 1022.8
20191022162424 56 90 0.0 1.0 0.00 0.00 0.00 84 1022.8
20191022161423 57 123 0.0 1.0 0.00 0.00 0.00 84 1022.7
20191022160103 57 135 0.0 2.0 0.00 0.00 0.00 84 1022.8
20191022155102 57 174 1.0 4.0 0.00 0.00 0.00 84 1022.9
20191022154100 58 165 1.0 5.0 0.00 0.00 0.00 84 1023.0
20191022153058 58 154 1.0 3.0 0.00 0.00 0.00 84 1023.0
20191022152057 58 171 1.0 4.0 0.00 0.00 0.00 84 1023.0
20191022151054 58 171 1.0 4.0 0.00 0.00 0.00 84 1023.0
20191022150052 58 147 0.0 4.0 0.00 0.00 0.00 84 1023.2
20191022145050 58 135 1.0 3.0 0.00 0.00 0.00 84 1023.0
20191022144049 58 145 1.0 3.0 0.00 0.00 0.00 84 1022.9
20191022143046 58 156 1.0 2.0 0.00 0.00 0.00 84 1023.0
20191022142043 58 127 1.0 4.0 0.00 0.00 0.00 83 1022.9
20191022141042 58 140 0.0 3.0 0.00 0.00 0.00 83 1022.8
20191022140042 58 161 0.0 3.0 0.00 0.00 0.00 83 1022.7
20191022135038 59 90 0.0 2.0 0.00 0.00 0.00 83 1022.7
20191022134036 59 135 1.0 3.0 0.00 0.00 0.00 84 1022.8
20191022133034 58 158 1.0 3.0 0.00 0.00 0.00 84 1022.6
20191022132032 58 176 1.0 4.0 0.00 0.00 0.00 84 1022.7
20191022131030 58 45 1.0 4.0 0.00 0.00 0.00 84 1022.9
20191022130029 58 0 1.0 6.0 0.00 0.00 0.00 85 1023.5
20191022125026 57 186 1.0 4.0 0.00 0.00 0.00 86 1023.2
20191022124024 57 161 0.0 3.0 0.00 0.00 0.00 86 1023.3
20191022123022 57 90 0.0 2.0 0.00 0.00 0.00 85 1023.1
20191022122020 57 90 0.0 3.0 0.00 0.00 0.00 85 1023.2
20191022121017 57 135 1.0 3.0 0.00 0.00 0.00 85 1023.5
20191022120015 57 147 1.0 2.0 0.00 0.00 0.00 85 1023.7
20191022115013 57 149 1.0 3.0 0.00 0.00 0.00 85 1023.8
20191022114012 57 164 1.0 4.0 0.00 0.00 0.00 84 1023.8
20191022113011 57 188 1.0 6.0 0.00 0.00 0.00 84 1023.8
20191022112008 57 135 1.0 2.0 0.00 0.00 0.00 84 1023.8
20191022111006 57 146 1.0 3.0 0.00 0.00 0.00 85 1024.1
20191022110011 57 135 1.0 5.0 0.00 0.00 0.00 85 1023.9
20191022105003 57 178 1.0 6.0 0.00 0.00 0.00 86 1024.1
20191022104501 57 178 1.0 6.0 0.00 0.00 0.00 86 1024.1
20191022103459 56 185 1.0 6.0 0.00 0.00 0.00 86 1023.9
20191022102456 56 185 1.0 5.0 0.00 0.00 0.00 86 1023.8
20191022101457 55 168 1.0 4.0 0.00 0.00 0.00 86 1023.9
20191022100452 55 161 1.0 3.0 0.00 0.00 0.00 86 1023.8
20191022095450 55 159 1.0 6.0 0.00 0.00 0.00 86 1023.7
20191022094448 55 190 1.0 5.0 0.00 0.00 0.00 86 1023.7
20191022093447 55 129 1.0 5.0 0.00 0.00 0.00 86 1023.7
20191022092444 55 190 1.0 6.0 0.00 0.00 0.00 86 1023.5
20191022091442 54 166 1.0 4.0 0.00 0.00 0.00 87 1023.7
20191022090441 54 150 1.0 4.0 0.00 0.00 0.00 87 1023.5
20191022085439 54 135 1.0 5.0 0.00 0.00 0.00 87 1023.4
20191022084436 54 143 1.0 4.0 0.00 0.00 0.00 87 1023.3
20191022083434 54 90 0.0 2.0 0.00 0.00 0.00 87 1023.4
20191022082433 54 161 1.0 5.0 0.00 0.00 0.00 87 1023.1
20191022081956 53 166 1.0 4.0 0.00 0.00 0.00 87 1023.1
20191022080429 53 118 1.0 3.0 0.00 0.00 0.00 87 1023.3
20191022075427 53 118 1.0 3.0 0.00 0.00 0.00 87 1023.3
20191022074425 53 153 1.0 4.0 0.00 0.00 0.00 86 1023.0
20191022073423 53 167 1.0 5.0 0.00 0.00 0.00 86 1023.0
20191022072421 53 154 1.0 3.0 0.00 0.00 0.00 86 1022.6